Date String (YYYY-MM-DD hh:mm:ss) UTC,Instrument flags,absolute air pressure of the measurement (hPa),sample flow rate (lpm),inlet stack bypass flow (lpm),air temperature of the measurement (°C),ambient temperature measured by the external sensor (°C),aerosol sample conditioner tube jacket temperature (°C),OPC LED temperature (°C),internal box temperature (°C),relative humidity of the measurement (%),span deviation,mass concentration of particles derived from Lorenz-Mie calculation of OPC scattering (μg/m³),mass concentration of particles derived from Lorenz-Mie calculation of OPC scattering (μg/m³),mass concentration of particles derived from Lorenz-Mie calculation of OPC scattering (μg/m³)
DateTimeUTC,F1_M11,P_M11,Q1_M11,Q2_M11,T1_M11,T2_M11,T3_M11,T4_M11,T5_M11,U1_M11,ZSPAN_M11,X0_M11,X2_M11,X1_M11
2024-02-27 16:00:00,SystemResetWarning,0815.9,4.99,000.00,018.9,018.1,000.0,027.5,020.6,17.7,0000.0,0010.79,0002.25,0000.81
2024-02-27 16:01:00,SystemResetWarning,0816.0,4.99,000.00,018.9,018.1,000.0,027.4,020.6,17.6,0000.0,0012.07,0002.22,0000.80
2024-02-27 16:02:00,SystemResetWarning,0816.0,5.01,000.00,018.8,018.1,000.0,027.4,020.6,17.5,0000.0,0012.18,0002.20,0000.80
2024-02-27 16:03:00,SystemResetWarning,0815.8,5.01,000.00,018.8,018.1,000.0,027.4,020.6,17.4,0000.0,0011.52,0002.13,0000.80
2024-02-27 16:04:00,SystemResetWarning,0815.9,5.00,000.00,018.8,018.0,000.0,027.4,020.6,17.3,0000.0,0011.01,0002.07,0000.80
2024-02-27 16:05:00,SystemResetWarning,0815.8,4.99,000.00,018.8,018.0,000.0,027.4,020.6,17.3,0000.0,0010.68,0002.02,0000.81
2024-02-27 16:06:00,SystemResetWarning,0815.9,5.00,000.00,018.8,018.0,000.0,027.4,020.5,17.4,0000.0,0010.23,0002.03,0000.83
2024-02-27 16:07:00,SystemResetWarning,0815.9,5.00,000.00,018.8,018.0,000.0,027.4,020.5,17.4,0000.0,0009.41,0002.12,0000.85
2024-02-27 16:08:00,SystemResetWarning,0815.9,5.01,000.00,018.7,017.9,000.0,027.3,020.4,17.4,0000.0,0008.67,0002.07,0000.89
2024-02-27 16:09:00,SystemResetWarning,0815.9,5.01,000.00,018.7,017.9,000.0,027.3,020.4,17.4,0000.0,0008.24,0002.05,0000.94
2024-02-27 16:10:00,SystemResetWarning,0815.9,5.00,000.00,018.7,017.9,000.0,027.3,020.3,17.4,0000.0,0008.16,0002.09,0000.99
2024-02-27 16:11:00,SystemResetWarning,0815.9,4.99,000.00,018.7,017.9,000.0,027.3,020.3,17.4,0000.0,0008.06,0002.15,0001.02
2024-02-27 16:12:00,SystemResetWarning,0815.9,5.00,000.00,018.6,017.9,000.0,027.2,020.3,17.3,0000.0,0006.71,0002.23,0001.09
2024-02-27 16:13:00,SystemResetWarning,0815.9,4.99,000.00,018.6,017.8,000.0,027.2,020.3,17.3,0000.0,0006.34,0002.32,0001.17
2024-02-27 16:14:00,SystemResetWarning,0815.8,5.00,000.00,018.6,017.8,000.0,027.2,020.3,17.3,0000.0,0006.93,0002.43,0001.23
2024-02-27 16:15:00,SystemResetWarning,0815.8,5.00,000.00,018.6,017.8,000.0,027.2,020.2,17.3,0000.0,0007.54,0002.52,0001.30
2024-02-27 16:16:00,SystemResetWarning,0815.8,5.00,000.00,018.5,017.7,000.0,027.2,020.2,17.2,0000.0,0007.32,0002.58,0001.36
2024-02-27 16:17:00,SystemResetWarning,0815.8,5.00,000.00,018.5,017.7,000.0,027.1,020.2,17.2,0000.0,0007.14,0002.60,0001.39
2024-02-27 16:18:00,SystemResetWarning,0815.7,5.00,000.00,018.5,017.7,000.0,027.1,020.2,17.2,0000.0,0007.65,0002.62,0001.44
2024-02-27 16:19:00,SystemResetWarning,0815.6,5.00,000.00,018.5,017.7,000.0,027.1,020.2,17.3,0000.0,0008.10,0002.65,0001.49
2024-02-27 16:20:00,SystemResetWarning,0815.6,5.00,000.00,018.5,017.6,000.0,027.1,020.1,17.3,0000.0,0008.02,0002.66,0001.53
2024-02-27 16:21:00,SystemResetWarning,0815.6,5.00,000.00,018.4,017.6,000.0,027.1,020.1,17.3,0000.0,0007.98,0002.67,0001.55
2024-02-27 16:22:00,SystemResetWarning,0815.6,5.00,000.00,018.4,017.5,000.0,027.0,020.0,17.4,0000.0,0008.99,0002.65,0001.55
2024-02-27 16:23:00,SystemResetWarning,0815.7,5.00,000.00,018.4,017.5,000.0,027.0,020.0,17.4,0000.0,0008.96,0002.66,0001.57
2024-02-27 16:24:00,SystemResetWarning,0815.8,5.00,000.00,018.3,017.5,000.0,027.0,020.0,17.4,0000.0,0008.93,0002.63,0001.55
2024-02-27 16:25:00,SystemResetWarning,0816.0,5.01,000.00,018.3,017.5,000.0,027.0,020.0,17.3,0000.0,0008.73,0002.56,0001.54
2024-02-27 16:26:00,SystemResetWarning,0816.0,5.00,000.00,018.3,017.4,000.0,027.0,020.0,17.2,0000.0,0008.24,0002.52,0001.53
2024-02-27 16:27:00,SystemResetWarning,0816.1,5.00,000.00,018.3,017.4,000.0,027.0,020.0,17.1,0000.0,0008.23,0002.53,0001.52
2024-02-27 16:28:00,SystemResetWarning,0816.0,5.00,000.00,018.3,017.4,000.0,027.0,020.0,17.1,0000.0,0009.23,0002.56,0001.51
2024-02-27 16:29:00,SystemResetWarning,0816.0,5.00,000.00,018.2,017.4,000.0,027.0,020.0,17.1,0000.0,0009.27,0002.54,0001.53
2024-02-27 16:30:00,SystemResetWarning,0816.0,5.00,000.00,018.2,017.3,000.0,027.0,020.0,17.2,0000.0,0009.22,0002.56,0001.52
2024-02-27 16:31:00,SystemResetWarning,0816.0,5.00,000.00,018.2,017.3,000.0,027.0,020.0,17.2,0000.0,0008.99,0002.52,0001.49
2024-02-27 16:32:00,SystemResetWarning,0815.9,5.00,000.00,018.2,017.3,000.0,027.0,020.0,17.2,0000.0,0008.96,0002.51,0001.47
2024-02-27 16:33:00,SystemResetWarning,0815.9,5.00,000.00,018.2,017.3,000.0,027.0,020.0,17.4,0000.0,0008.61,0002.49,0001.48
2024-02-27 16:34:00,SystemResetWarning,0815.8,4.99,000.00,018.2,017.3,000.0,027.0,020.0,17.5,0000.0,0008.53,0002.53,0001.47
2024-02-27 16:35:00,SystemResetWarning,0815.8,5.00,000.00,018.2,017.2,000.0,027.0,020.0,17.6,0000.0,0008.72,0002.57,0001.49
2024-02-27 16:36:00,SystemResetWarning,0815.8,5.00,000.00,018.2,017.2,000.0,027.0,020.0,17.8,0000.0,0009.48,0002.63,0001.52
2024-02-27 16:37:00,SystemResetWarning,0815.7,5.00,000.00,018.2,017.2,000.0,027.0,020.0,18.0,0000.0,0009.80,0002.68,0001.57
2024-02-27 16:38:00,SystemResetWarning,0815.8,5.01,000.00,018.2,017.2,000.0,027.0,020.0,18.1,0000.0,0009.91,0002.69,0001.62
2024-02-27 16:39:00,SystemResetWarning,0815.9,4.99,000.00,018.2,017.2,000.0,027.0,020.0,18.2,0000.0,0009.70,0002.68,0001.67
2024-02-27 16:40:00,SystemResetWarning,0815.9,5.00,000.00,018.2,017.2,000.0,027.0,020.0,18.2,0000.0,0009.31,0002.75,0001.72
2024-02-27 16:41:00,SystemResetWarning,0816.0,5.00,000.00,018.1,017.2,000.0,027.0,020.0,18.2,0000.0,0008.86,0002.75,0001.76
2024-02-27 16:42:00,SystemResetWarning,0816.1,5.00,000.00,018.1,017.2,000.0,027.0,020.0,18.0,0000.0,0008.68,0002.79,0001.81
2024-02-27 16:43:00,SystemResetWarning,0816.1,5.00,000.00,018.1,017.2,000.0,027.0,020.0,17.8,0000.0,0009.29,0002.88,0001.87
2024-02-27 16:44:00,SystemResetWarning,0816.1,4.99,000.00,018.1,017.2,000.0,027.0,020.0,17.7,0000.0,0008.97,0003.00,0001.96
2024-02-27 16:45:00,SystemResetWarning,0816.1,4.99,000.00,018.1,017.2,000.0,027.0,020.0,17.6,0000.0,0008.81,0003.05,0002.05
2024-02-27 16:46:00,SystemResetWarning,0816.1,5.00,000.00,018.1,017.2,000.0,027.0,020.0,17.4,0000.0,0008.55,0003.05,0002.13
2024-02-27 16:47:00,SystemResetWarning,0816.2,5.01,000.00,018.1,017.2,000.0,027.0,020.0,17.4,0000.0,0007.99,0003.09,0002.21
2024-02-27 16:48:00,SystemResetWarning,0816.2,5.00,000.00,018.1,017.2,000.0,027.0,020.0,17.4,0000.0,0007.70,0003.13,0002.26
2024-02-27 16:49:00,SystemResetWarning,0816.2,5.00,000.00,018.1,017.2,000.0,027.0,020.0,17.5,0000.0,0007.69,0003.20,0002.31
2024-02-27 16:50:00,SystemResetWarning,0816.2,5.00,000.00,018.1,017.2,000.0,027.0,020.0,17.5,0000.0,0007.30,0003.26,0002.39
2024-02-27 16:51:00,SystemResetWarning,0816.2,5.00,000.00,018.1,017.2,000.0,027.0,020.0,17.6,0000.0,0007.33,0003.30,0002.47
2024-02-27 16:52:00,SystemResetWarning,0816.3,4.99,000.00,018.1,017.2,000.0,027.0,020.0,17.7,0000.0,0007.39,0003.35,0002.54
2024-02-27 16:53:00,SystemResetWarning,0816.4,4.99,000.00,018.1,017.2,000.0,027.0,020.0,17.7,0000.0,0007.66,0003.45,0002.63
2024-02-27 16:54:00,SystemResetWarning,0816.4,4.99,000.00,018.1,017.2,000.0,027.0,020.0,17.7,0000.0,0007.82,0003.49,0002.70
2024-02-27 16:55:00,SystemResetWarning,0816.3,5.00,000.00,018.1,017.2,000.0,027.0,020.0,17.6,0000.0,0008.12,0003.56,0002.79
2024-02-27 16:56:00,SystemResetWarning,0816.1,5.00,000.00,018.1,017.1,000.0,027.0,020.0,17.6,0000.0,0008.24,0003.61,0002.86
2024-02-27 16:57:00,SystemResetWarning,0816.2,5.01,000.00,018.1,017.1,000.0,027.0,020.0,17.6,0000.0,0008.41,0003.69,0002.94
2024-02-27 16:58:00,SystemResetWarning,0816.3,5.00,000.00,018.1,017.2,000.0,027.0,020.0,17.6,0000.0,0008.42,0003.73,0002.98
2024-02-27 16:59:00,SystemResetWarning,0816.3,5.00,000.00,018.2,017.8,000.0,027.0,020.3,17.5,0000.0,0009.21,0003.79,0003.06
